Regional Weather Roundup
Issued by NWS Burlington, VT

Home | Current Version | Previous Version | Text Only | Print | Product List | Glossary On
Versions: 1 2 3 4 5 6 7 8 9 10 11 12 13 14 15 16 17 18 19 20 21 22 23 24 25 26 27 28 29 30 31 32 33 34 35 36 37 38 39 40 41 42 43 44 45 46 47 48 49 50
399
ASUS41 KBTV 192010
RWRBTV
VERMONT REGIONAL WEATHER ROUNDUP
NATIONAL WEATHER SERVICE BURLINGTON VT
300 PM EST THU JAN 19 2017

NOTE: "FAIR" INDICATES FEW OR NO CLOUDS BELOW 12,000 FEET WITH NO
SIGNIFICANT WEATHER AND/OR OBSTRUCTIONS TO VISIBILITY.

* THESE REPORTS ARE NOT UNDER NWS QUALITY CONTROL AND/OR DO NOT
  REPORT WEATHER SUCH AS PRECIPITATION AND FOG.

VTZ001>019-192100-
_____VERMONT_____


CITY           SKY/WX    TMP DP  RH WIND       PRES   REMARKS
BURLINGTON     CLOUDY    38  31  76 NW5       29.97F
MONTPELIER     CLOUDY    33  31  92 NW9       29.97S WCI  25
MORRISVILLE    CLOUDY    35  30  82 CALM      29.97S
ST. JOHNSBURY*   N/A     37  29  72 MISG      29.93S
LYNDONVILLE*   CLOUDY    33  30  89 W3        29.94S
MIDDLEBURY*    CLOUDY    38  24  55 NW6       29.96S
RUTLAND*       CLOUDY    37  33  85 NW6       29.95S
SPRINGFIELD    CLOUDY    38  33  82 CALM      29.95S
HIGHGATE*      CLOUDY    35  33  90 W3        29.97F
NEWPORT*       CLOUDY    33  31  92 CALM      29.95S
BENNINGTON     CLOUDY    39  33  79 W6        29.95S
SUTTON*          N/A     32 N/A N/A MISG        N/A

_____LAKE CHAMPLAIN_____


CITY           SKY/WX    TMP DP  RH WIND       PRES   REMARKS
BURTON ISLAND*   N/A     37  32  81 NE1         N/A
COLCHESTER RF*   N/A     39  32  75 N12         N/A  WCI  32
DIAMOND ISL*     N/A     37  34  87 N12         N/A  WCI  30

$$

NYZ007-026>031-035-052-083-087-192100-
_____NORTHERN NEW YORK_____


CITY           SKY/WX    TMP DP  RH WIND       PRES   REMARKS
PLATTSBURGH    CLOUDY    39  29  67 NW8       29.97F
SARANAC LAKE   FLURRIES  33  30  88 W3        29.92S
MASSENA        CLOUDY    38  33  82 SW5       30.00S
OGDENSBURG*    LGT RAIN  39  37  91 CALM      29.99
POTSDAM*       CLOUDY    37  37 100 W3        29.99S
WATERTOWN      CLOUDY    38  36  92 SW6       30.00F
FT DRUM        CLOUDY    37  33  84 VRB3      29.97F
ALBANY         CLOUDY    41  33  73 W10       30.00S
GLENS FALLS    CLOUDY    42  34  73 CALM      29.97S

$$
NHZ002-005-011-192100-
_____NEW HAMPSHIRE_____


CITY           SKY/WX    TMP DP  RH WIND       PRES   REMARKS
LEBANON        CLOUDY    37  33  85 CALM      29.94S
KEENE          CLOUDY    38  35  89 NE3       29.95S
MT WASHINGTON  BLWGSNOW  19  19 100 W63         N/A  VSB 1/8 WCI  -6
PLYMOUTH       CLOUDY    38  31  74 NW7       29.93S

$$

_____REGIONAL QUEBEC LOCATIONS_____


CITY           SKY/WX    TMP DP  RH WIND       PRES   REMARKS
MONTREAL       CLOUDY    36  32  87 W8        29.97S WCI  29
QUEBEC CITY    PTSUNNY   30  27  86 SW10      29.91S WCI  21
SHERBROOKE     LGT RAIN  32  30  93 W7        29.92S FOG     WCI  26

_____REGIONAL ONTARIO LOCATIONS_____


CITY           SKY/WX    TMP DP  RH WIND       PRES   REMARKS
OTTAWA         CLOUDY    36  34  93 W6        29.99R WCI  31

______KEY______
VSB  - VISIBILITY IN MILES
WCI  - WIND CHILL INDEX
HX   - HEAT INDEX
$$
NNNN




USA.gov is the U.S. government's official web portal to all federal, state and local government web resources and services.